Regional Weather Roundup
Issued by NWS

Home | Current Version | Previous Version | Text Only | Print | Product List | Glossary On
Versions: 1 2 3 4 5 6 7 8 9 10 11 12 13 14 15 16 17 18 19 20 21 22 23 24 25 26 27 28 29 30 31 32 33 34 35 36 37 38 39 40 41 42 43 44 45 46 47 48 49 50
000
ASUS44 KJAN 181710
RWRMS

MISSISSIPPI HOURLY WEATHER ROUNDUP
NATIONAL WEATHER SERVICE JACKSON MS
1100 AM CST THU DEC 18 2014

NOTE: "FAIR: INDICATES FEW OR NO CLOUDS BELOW 12,000 FEET WITH NO
SIGNIFICANT WEATHER AND/OR OBSTRUCTIONS TO VISIBILITY.

MSZ001>002-007>008-010>013-018>021-025>028-034>036-181800-
NORTHWEST MISSISSIPPI

CITY           SKY/WX    TMP DP  RH WIND       PRES   REMARKS
CLARKSDALE     PTSUNNY   43  41  93 CALM      30.26F
CLEVELAND      CLOUDY    46  42  89 E6        30.23F
GREENWOOD      CLOUDY    47  45  93 E6        30.23F
GREENVILLE     CLOUDY    47  42  83 E6        30.22F
GRENADA        CLOUDY    45  37  76 CALM      30.25F
OLIVE BRANCH   CLOUDY    39  39 100 CALM      30.26F
OXFORD         PTSUNNY   41  36  81 CALM      30.26F
TUNICA         PTSUNNY   41  36  81 CALM      30.27F
$$

MSZ003>006-009-014>017-022>024-029>033-037>039-181800-
NORTHEAST MISSISSIPPI

CITY           SKY/WX    TMP DP  RH WIND       PRES   REMARKS
COLUMBUS AFB   PTSUNNY   45  34  64 CALM      30.24F
CORINTH        CLOUDY    43  36  75 CALM      30.25S
GOLDN TRIANGLE CLOUDY    45  34  65 S6        30.23F
STARKVILLE     CLOUDY    45  36  70 CALM      30.22F
TUPELO         CLOUDY    43  36  76 CALM      30.25R
$$

MSZ040-058-181800-
CENTRAL MISSISSIPPI

CITY           SKY/WX    TMP DP  RH WIND       PRES   REMARKS
JACKSON INTL   LGT RAIN  47  42  83 E6        30.21F
JACKSON HAWKNS CLOUDY    47  42  83 NE6       30.21F
MERIDIAN KEY   CLOUDY    50  36  58 N8        30.22F
MERIDIAN NAS   CLOUDY    47  35  63 N3        30.24R
RAYMOND        CLOUDY    48  43  81 NE3       30.22S
VICKSBURG      CLOUDY    49  43  80 E7        30.21F
$$

MSZ059>079-181800-
SOUTH MISSISSIPPI

CITY           SKY/WX    TMP DP  RH WIND       PRES   REMARKS
HATTIESBURG    MOSUNNY   57  41  55 SE10      30.20F
MCCOMB         PTSUNNY   58  44  60 SE9       30.17F
NATCHEZ        CLOUDY    52  45  76 N7        30.19S
PINE BELT      MOSUNNY   55  39  54 S6        30.21S
$$

MSZ080>082-181800-
COASTAL MISSISSIPPI

CITY           SKY/WX    TMP DP  RH WIND       PRES   REMARKS
BAY ST LOUIS   SUNNY     57  37  47 SE7       30.20F
BILOXI         SUNNY     59  42  53 VRB5      30.20F
PASCAGOULA     SUNNY     59  41  51 VRB3      30.20F
GULFPORT       SUNNY     58  40  51 SE9       30.20F
$$


USA.gov is the U.S. government's official web portal to all federal, state and local government web resources and services.